Theta_e
304 309 316 323 325 326 327 326 327 325 326 324 321 319 319 315 312 310 307 306 304 300 299 298 296 295 294 291 292 291 289 290 288 287 287 287 287 287 288 288 288 287 287
302 304 307 312 316 319 324 325 326 323 318 317 317 315 312 310 308 306 303 303 300 297 296 294 293 293 290 291 290 289 289 289 288 284 285 285 286 287 286 285 288 288 286
302 302 304 307 310 312 315 317 316 314 313 312 311 310 308 307 306 305 303 300 299 296 294 293 292 291 288 288 288 288 288 288 287 284 283 285 285 285 283 284 284 283 287
301 301 301 302 305 308 308 310 311 310 308 307 308 308 305 304 303 300 299 296 294 293 292 291 291 289 288 288 287 286 286 285 284 282 282 282 282 283 281 282 280 281 281
300 299 299 300 301 302 303 303 303 304 305 305 301 299 300 301 298 295 294 293 290 288 288 289 288 287 288 289 288 285 285 284 283 282 281 280 281 281 280 281 280 280 280
299 297 297 297 296 295 297 294 293 293 293 293 292 295 294 292 296 295 294 289 289 288 286 285 285 286 288 290 290 289 288 285 283 282 281 281 282 281 281 280 279 277 275
296 294 292 291 291 290 291 291 290 290 290 289 290 290 289 290 293 293 291 289 287 288 285 284 284 285 286 286 290 290 288 289 288 285 282 282 281 282 282 279 279 277 277
292 290 288 290 290 289 289 289 288 288 288 288 288 288 288 289 292 291 288 287 286 285 285 284 284 284 285 285 285 284 284 284 285 285 283 283 284 283 282 281 279 276 276
290 288 287 289 287 287 287 287 287 286 286 287 287 287 287 288 291 290 288 286 284 284 284 284 284 284 287 287 284 283 283 283 287 288 287 287 288 288 287 284 281 270 269
288 288 287 287 288 287 286 286 285 286 285 285 285 286 286 287 290 290 287 285 283 283 284 284 284 284 287 288 284 283 281 282 283 282 282 285 285 283 285 284 282 278 269
288 287 286 285 287 287 286 284 285 285 285 285 285 285 286 287 288 289 288 285 284 283 283 283 284 287 287 288 287 284 283 284 284 281 281 280 280 280 278 280 282 281 278
283 282 281 282 283 286 286 285 285 285 285 285 285 284 284 285 287 289 288 287 287 284 283 283 284 287 287 287 286 286 287 286 281 280 278 278 278 277 278 278 278 279 281
279 279 279 280 285 285 285 285 284 285 285 284 284 283 282 284 286 289 288 288 287 284 284 284 285 287 287 286 287 287 284 283 282 280 280 279 278 278 276 273 273 273 275
280 279 279 280 282 284 285 285 285 285 284 283 284 284 282 283 284 285 285 285 285 284 285 285 285 285 285 285 282 285 284 283 282 281 280 277 274 272 271 273 270 270 268
279 278 279 279 279 280 283 284 283 284 286 285 285 285 283 282 283 286 286 285 284 284 283 282 281 281 280 281 281 282 280 279 279 276 274 273 273 272 270 269 268 266 266
277 277 277 277 276 277 280 278 285 287 288 288 288 286 284 286 287 287 288 288 288 287 282 280 280 279 279 279 280 280 280 278 278 275 274 273 272 270 269 268 267 265 265
276 275 275 276 275 275 274 275 275 281 286 287 288 287 286 286 287 287 287 288 288 288 282 281 280 279 279 279 279 280 278 277 276 275 274 272 270 268 267 265 266 266 263
274 276 274 273 273 273 274 274 275 275 276 278 284 285 286 286 286 287 287 287 284 285 283 281 280 280 280 279 279 278 273 272 272 271 270 269 268 266 264 266 266 263 260
276 273 273 273 273 273 274 274 277 280 281 281 280 284 284 286 286 286 287 284 283 282 282 281 281 280 279 279 276 273 273 272 269 269 268 268 268 267 266 266 265 264 262
280 274 274 273 271 272 274 280 281 282 282 283 282 282 282 282 282 282 282 282 282 282 282 282 282 281 278 276 273 272 270 269 269 269 269 268 268 268 267 266 266 265 263
272 269 271 272 279 279 273 271 273 274 277 278 279 279 282 281 280 280 280 281 282 282 282 281 278 276 275 274 272 272 271 271 270 269 268 268 267 266 267 267 266 266 265
266 266 266 265 266 267 267 268 268 268 269 269 270 271 281 275 275 277 279 280 281 281 282 281 277 275 273 272 272 270 269 268 268 268 267 267 267 266 266 266 265 265 265
263 264 264 262 262 264 263 263 264 264 264 264 265 265 265 265 266 267 269 271 270 269 269 269 269 267 266 268 270 270 269 268 268 269 267 266 266 265 265 264 264 264 264
262 261 261 261 260 259 260 260 261 263 262 261 260 261 261 261 261 262 261 265 265 266 269 270 271 271 270 269 269 269 269 269 268 268 268 266 265 264 264 264 264 264 263
256 257 257 257 256 257 257 257 258 258 259 260 261 261 261 262 262 260 260 262 264 264 264 264 264 264 266 266 265 266 266 268 266 267 266 265 264 264 264 263 263 263 263
256 256 255 255 255 254 254 255 255 256 256 257 257 256 257 257 257 257 257 258 259 258 259 261 263 262 262 264 264 264 265 266 265 264 263 263 262 262 262 262 261 261 261
Wind_Speed
8 7 7 11 13 12 13 12 12 8 10 12 12 11 13 13 12 11 8 11 11 9 7 10 8 7 5 4 4 3 3 3 4 1 2 1 1 2 3 4 4 4 4
7 6 7 6 5 7 11 11 9 8 7 9 10 11 11 11 12 12 12 10 12 12 10 10 11 7 7 6 4 5 4 3 4 4 2 2 2 1 1 2 2 3 4
7 6 6 6 6 6 5 6 6 6 6 7 9 10 12 12 11 12 14 13 12 14 13 11 12 11 8 5 5 5 4 3 3 4 3 2 1 2 1 2 2 3 4
5 5 6 6 7 7 5 6 7 8 9 8 9 10 11 11 11 11 11 11 9 11 11 11 12 11 11 9 7 6 5 4 4 3 2 2 2 2 2 2 3 2 4
6 6 7 5 4 2 4 4 4 8 10 11 10 8 8 11 10 13 12 12 13 10 8 9 8 9 12 10 8 7 7 4 3 3 2 2 2 1 2 2 2 2 3
6 6 5 5 4 4 2 1 2 1 2 6 7 10 11 6 13 16 15 12 11 13 12 7 7 8 11 14 12 12 9 8 4 3 2 2 4 3 2 2 2 2 3
7 6 7 5 4 4 5 5 3 4 4 3 5 8 8 8 19 21 19 12 11 9 11 10 9 6 10 9 13 13 10 10 6 4 3 4 3 4 3 2 3 2 3
7 7 6 6 5 4 5 5 4 4 5 6 7 6 7 8 19 19 17 12 11 10 10 9 10 10 9 10 10 8 7 6 6 4 5 5 4 4 4 4 4 3 2
8 7 7 7 6 6 5 6 4 4 3 4 4 8 9 11 20 20 16 9 9 9 8 8 9 10 14 15 9 8 6 4 7 10 9 9 9 9 8 2 4 3 3
6 6 6 6 7 8 6 5 2 3 4 4 4 5 5 7 16 18 15 9 10 8 7 7 10 9 18 18 8 7 7 5 5 3 2 4 5 4 7 5 4 5 3
4 5 6 5 6 7 6 4 5 4 5 4 5 4 5 7 11 16 15 7 8 8 7 6 5 14 17 16 11 7 6 6 8 5 4 3 3 4 3 4 5 4 3
2 3 3 3 2 4 7 7 7 7 8 6 7 5 4 5 8 13 13 8 12 8 7 5 6 16 14 14 12 12 12 9 4 4 3 4 4 4 4 3 4 2 2
5 3 3 4 3 4 4 5 5 7 6 6 6 6 5 5 5 11 12 11 13 5 5 8 11 14 13 11 16 15 10 4 5 5 5 5 4 4 3 2 2 4 5
3 3 3 3 3 3 1 4 6 5 5 7 7 6 5 5 5 5 4 4 9 7 10 7 8 8 9 9 5 11 6 6 6 6 6 3 2 2 2 3 3 2 2
4 3 3 3 2 2 2 2 2 2 5 6 5 6 8 6 7 10 10 7 5 6 7 4 3 4 5 6 6 6 4 4 5 3 3 3 3 3 2 2 2 2 3
3 2 2 3 2 3 4 4 10 4 7 7 10 8 3 7 15 16 15 14 14 15 3 4 6 7 7 8 8 7 7 7 7 6 6 6 5 4 3 2 2 3 3
3 1 1 2 2 3 3 4 4 4 8 8 11 13 13 10 16 18 18 18 16 14 5 6 6 7 8 8 8 8 9 8 6 7 7 6 4 3 3 3 3 3 3
4 4 2 1 2 2 3 3 3 2 2 2 3 3 8 12 12 13 15 13 6 11 7 6 7 7 8 8 8 7 4 4 6 6 5 6 5 4 3 4 4 4 3
3 2 2 2 1 3 3 3 2 3 3 2 2 7 8 11 12 14 17 8 9 8 9 9 8 8 8 7 5 4 5 5 5 5 5 6 6 5 5 5 5 6 4
3 5 4 2 2 3 2 1 1 2 3 3 4 4 4 5 5 6 6 7 6 7 7 8 7 6 5 6 6 6 6 5 6 7 6 6 6 6 6 6 6 5 5
4 4 4 3 2 2 2 1 1 1 1 1 0 2 7 5 5 6 6 7 8 8 8 7 6 7 6 6 6 6 8 7 8 8 7 7 7 7 7 7 7 7 6
4 4 4 4 4 4 4 3 2 2 2 2 2 2 6 1 2 3 4 5 6 7 6 5 4 5 5 6 6 6 7 7 7 7 7 7 7 7 7 7 6 6 6
4 4 4 3 3 4 4 4 4 4 3 3 2 2 1 2 2 2 3 2 2 1 1 1 1 1 2 3 5 6 7 7 7 7 8 7 7 7 7 7 7 7 7
4 5 5 4 4 4 4 3 3 4 3 3 3 3 2 2 3 4 3 3 3 2 2 3 3 5 4 5 5 6 6 5 5 7 9 8 7 8 7 7 7 8 7
3 3 3 3 3 3 3 4 3 4 3 3 3 3 3 3 3 3 4 3 3 2 3 2 1 3 6 7 6 6 6 9 5 6 6 7 8 9 7 6 6 5 6
4 4 3 3 3 3 3 3 3 3 3 3 3 3 3 3 3 3 3 3 3 3 4 2 3 6 7 6 6 7 9 10 8 9 5 5 6 6 5 6 8 6 6
Wind_Direction
230 235 237 222 222 217 215 213 211 198 191 189 183 173 176 171 167 162 167 159 147 140 139 142 139 136 135 127 113 102 108 118 121 76 112 124 82 71 33 1 346 351 334
235 234 236 249 239 226 223 221 219 208 166 159 161 168 174 175 168 161 153 164 153 152 156 146 148 143 140 144 132 139 134 115 125 144 148 160 186 124 113 318 317 321 311
211 219 228 230 223 222 252 198 168 153 162 153 159 174 175 177 176 171 162 163 168 158 160 161 154 151 150 150 138 139 138 126 123 119 158 165 168 136 30 319 280 290 291
221 231 228 236 236 216 203 193 172 168 165 170 180 184 180 172 170 160 153 145 160 151 152 155 154 157 158 153 148 147 142 141 130 116 146 160 152 194 146 199 299 261 277
206 218 233 238 246 223 203 227 203 189 187 175 166 158 169 169 166 158 154 153 144 144 135 143 145 145 149 153 154 160 146 138 148 141 156 145 173 147 181 223 256 266 288
204 217 217 196 188 166 178 223 155 178 152 146 153 160 156 151 163 160 153 151 148 147 152 137 132 138 143 144 151 158 155 151 169 140 171 181 195 171 184 203 225 24 333
191 199 185 193 223 200 166 166 204 187 147 143 148 149 149 147 160 153 147 143 160 156 151 147 144 149 147 147 152 153 148 164 160 150 165 189 190 192 162 222 217 178 228
201 192 190 183 197 185 173 181 171 163 179 164 161 152 152 159 160 154 143 140 142 150 150 153 149 158 167 158 155 146 155 167 177 167 186 213 212 200 190 199 206 209 296
202 199 192 180 168 175 185 180 169 149 176 174 161 150 161 159 162 153 136 140 125 129 134 143 149 159 169 168 158 157 170 167 199 200 209 226 243 254 250 217 261 74 306
224 208 182 179 177 178 179 167 161 136 144 128 131 126 126 153 161 147 136 138 141 145 139 144 160 165 173 182 157 167 178 180 179 163 192 229 240 254 253 233 220 246 212
223 185 178 173 182 165 157 133 123 103 101 93 95 69 101 150 160 157 152 150 152 145 153 161 166 175 184 187 178 183 177 155 191 184 191 197 213 208 215 213 192 194 210
145 114 123 133 137 161 157 135 130 137 130 126 121 101 88 101 151 167 157 141 147 142 158 158 170 183 184 192 198 201 202 199 172 184 189 208 212 209 219 199 167 153 229
98 102 102 92 124 141 140 139 133 144 150 148 155 150 148 146 156 169 154 156 148 114 136 151 163 187 194 209 214 213 213 201 187 198 221 225 214 210 168 159 231 245 236
75 97 95 123 134 118 66 147 145 158 166 158 166 167 150 145 145 135 130 143 141 121 145 148 172 176 198 217 213 228 217 197 201 220 226 206 185 168 190 183 189 221 193
101 111 115 114 117 97 71 135 130 163 176 173 179 159 156 161 180 171 167 175 170 167 137 145 161 173 198 219 220 216 202 185 203 187 178 192 208 196 206 191 192 204 201
88 104 134 122 118 121 114 64 39 121 150 153 149 148 110 142 166 177 182 185 188 174 157 183 198 197 207 215 219 219 211 207 213 200 208 211 208 199 202 225 168 181 225
91 76 79 103 116 124 118 139 127 62 91 122 146 149 150 158 176 186 192 200 205 189 209 202 206 203 212 218 219 215 215 211 189 203 204 200 190 196 177 208 208 218 242
32 44 92 109 143 128 144 150 138 141 143 121 164 153 173 175 181 201 206 198 210 210 217 211 218 222 217 218 217 214 195 172 191 193 189 190 191 179 181 199 208 217 215
35 36 33 44 57 130 123 116 120 143 168 167 142 201 195 202 200 209 211 214 213 214 217 222 218 219 222 218 190 181 191 199 183 178 197 201 201 195 212 206 211 211 187
75 48 64 90 57 45 36 53 178 191 195 204 192 194 162 182 203 205 210 221 228 228 230 236 231 225 202 191 180 181 184 185 195 198 201 206 197 201 217 217 219 219 215
10 8 26 56 82 91 122 92 340 326 301 292 260 175 187 195 209 205 209 218 226 228 229 222 203 199 199 195 192 203 213 214 208 199 193 200 197 207 211 207 210 210 216
21 28 19 22 7 18 16 28 50 55 36 14 331 344 287 275 239 253 255 247 243 244 246 238 212 203 198 197 202 210 213 214 203 200 206 205 204 207 204 204 208 216 217
23 37 29 17 30 21 14 4 1 3 351 349 341 336 334 283 299 255 256 273 290 262 354 79 141 190 179 190 200 207 218 217 208 199 200 199 199 200 199 204 201 207 212
24 27 37 20 11 11 18 10 2 355 338 324 332 339 332 290 277 286 293 311 306 273 191 218 235 245 243 220 217 216 222 220 198 204 199 202 203 198 202 207 205 211 215
39 45 49 37 19 9 4 358 357 347 354 342 349 352 346 340 334 315 305 305 300 305 285 258 233 248 254 241 223 221 219 223 202 193 194 199 207 207 208 213 200 205 212
18 21 20 18 12 7 3 345 336 336 322 312 319 317 304 297 285 289 297 304 298 287 287 279 251 247 249 249 239 225 215 218 216 202 188 194 198 201 205 211 206 209 208